Fortuna, CA

11:42 AM PST on February 23, 2017 (GMT -0800)
Rohnerville

Weather History for KFOT - June, 2014

Change the Weather History Date:

Monday, June 9, 2014

  Actual Average (KEKA) Record (KEKA)
Temperature  
Mean Temperature 56 °F -  
Max Temperature 64 °F 61 °F 71 °F (1993)
Min Temperature 48 °F 50 °F 44 °F (2002)
Degree Days  
Heating Degree Days 9    
Growing Degree Days 6 (Base 50)    
Moisture  
Dew Point 49 °F    
Average Humidity 81    
Maximum Humidity 100    
Minimum Humidity 59    
Precipitation  
Precipitation 0.00 in - - ()
Sea Level Pressure  
Sea Level Pressure 29.93 in    
Wind  
Wind Speed 6 mph (WNW)    
Max Wind Speed 20 mph    
Max Gust Speed 26 mph    
Visibility 8 miles    
Events      
Averages and records for this station are not official NWS values.
T = Trace of Precipitation, MM = Missing Value Source: NWS Daily Summary

Daily Weather History Graph

Daily Weather History Graph

Search for Another Location

Airport or City:

Trip Planner

Search our weather history database for the weather conditions in past years. The results will help you decide how hot, cold, wet, or windy it might be!

Date:

Astronomy

Jun. 09, 2014 Rise Set
Actual Time 5:45 AM PDT 8:46 PM PDT
Civil Twilight 5:12 AM PDT 9:19 PM PDT
Nautical Twilight 4:30 AM PDT 10:01 PM PDT
Astronomical Twilight 3:41 AM PDT 10:50 PM PDT
Moon 5:12 PM PDT (6/9) 3:17 AM PDT (6/9)
Length of Visible Light 16h 06m
Length of Day
15h 00m
Waxing Gibbous, 86% of the Moon is Illuminated
Jun 9
Waxing Gibbous
Jun 12
Full
Jun 19
Last Quarter
Jun 27
New
Jul 5
First Quarter

Hourly Weather History & Observations

Time (PDT) Temp. Dew Point Humidity Pressure Visibility Wind Dir Wind Speed Gust Speed Precip Events Conditions
12:15 AM 51.8 °F 48.2 °F 88% 29.95 in 8.0 mi Calm Calm - N/A   Clear
12:35 AM 50.0 °F 48.2 °F 94% 29.95 in 9.0 mi Calm Calm - N/A   Clear
12:55 AM 50.0 °F 48.2 °F 94% 29.95 in 9.0 mi Calm Calm - N/A   Clear
1:15 AM 50.0 °F 48.2 °F 94% 29.95 in 8.0 mi Calm Calm - N/A   Clear
1:35 AM 50.0 °F 48.2 °F 94% 29.95 in 8.0 mi West 4.6 mph - N/A   Clear
1:55 AM 50.0 °F 48.2 °F 94% 29.95 in 7.0 mi WNW 3.5 mph - N/A   Partly Cloudy
2:15 AM 50.0 °F 48.2 °F 94% 29.94 in 7.0 mi Calm Calm - N/A   Mostly Cloudy
2:35 AM 50.0 °F 48.2 °F 94% 29.94 in 7.0 mi West 3.5 mph - N/A   Overcast
2:55 AM 48.2 °F 48.2 °F 100% 29.94 in 5.0 mi West 3.5 mph - N/A   Overcast
3:15 AM 48.2 °F 48.2 °F 100% 29.93 in 7.0 mi Calm Calm - N/A   Mostly Cloudy
3:35 AM 48.2 °F 48.2 °F 100% 29.94 in 7.0 mi Calm Calm - N/A   Overcast
3:55 AM 50.0 °F 48.2 °F 94% 29.94 in 7.0 mi Calm Calm - N/A   Overcast
4:15 AM 50.0 °F 48.2 °F 94% 29.93 in 7.0 mi West 3.5 mph - N/A   Overcast
4:55 AM 50.0 °F 48.2 °F 94% 29.93 in 7.0 mi NW 3.5 mph - N/A   Overcast
5:15 AM 50.0 °F 48.2 °F 94% 29.93 in 7.0 mi Calm Calm - N/A   Overcast
5:35 AM 50.0 °F 48.2 °F 94% 29.93 in 7.0 mi Calm Calm - N/A   Overcast
5:55 AM 50.0 °F 48.2 °F 94% 29.94 in 5.0 mi NW 3.5 mph - N/A   Overcast
6:15 AM 50.0 °F 48.2 °F 94% 29.94 in 5.0 mi North 3.5 mph - N/A   Overcast
6:35 AM 50.0 °F 48.2 °F 94% 29.93 in 5.0 mi Calm Calm - N/A   Scattered Clouds
6:55 AM 50.0 °F 48.2 °F 94% 29.94 in 5.0 mi NNW 3.5 mph - N/A   Mostly Cloudy
7:15 AM 50.0 °F 48.2 °F 94% 29.94 in 5.0 mi NNW 3.5 mph - N/A   Mostly Cloudy
7:35 AM 50.0 °F 48.2 °F 94% 29.94 in 5.0 mi NNW 3.5 mph - N/A   Mostly Cloudy
7:55 AM 50.0 °F 48.2 °F 94% 29.94 in 5.0 mi Calm Calm - N/A   Scattered Clouds
8:15 AM 51.8 °F 48.2 °F 88% 29.94 in 5.0 mi NW 5.8 mph - N/A   Partly Cloudy
8:35 AM 53.6 °F 50.0 °F 88% 29.93 in 5.0 mi Calm Calm - N/A   Clear
8:55 AM 55.4 °F 50.0 °F 82% 29.94 in 6.0 mi NW 8.1 mph - N/A   Clear
9:15 AM 55.4 °F 50.0 °F 82% 29.94 in 7.0 mi NW 6.9 mph - N/A   Clear
9:55 AM 57.2 °F 51.8 °F 82% 29.93 in 7.0 mi WNW 10.4 mph - N/A   Clear
10:15 AM 57.2 °F 51.8 °F 82% 29.93 in 7.0 mi WNW 13.8 mph - N/A   Clear
10:35 AM 57.2 °F 51.8 °F 82% 29.93 in 8.0 mi WNW 15.0 mph 18.4 mph N/A   Clear
10:55 AM 59.0 °F 51.8 °F 77% 29.93 in 9.0 mi WNW 13.8 mph - N/A   Clear
11:15 AM 59.0 °F 51.8 °F 77% 29.93 in 9.0 mi WNW 15.0 mph 18.4 mph N/A   Clear
11:35 AM 59.0 °F 51.8 °F 77% 29.93 in 10.0 mi WNW 16.1 mph 21.9 mph N/A   Clear
12:55 PM 62.6 °F 51.8 °F 68% 29.93 in 10.0 mi WNW 18.4 mph 23.0 mph N/A   Clear
1:15 PM 62.6 °F 51.8 °F 68% 29.93 in 10.0 mi West 18.4 mph 24.2 mph N/A   Clear
1:35 PM 62.6 °F 51.8 °F 68% 29.93 in 10.0 mi WNW 17.3 mph 24.2 mph N/A   Clear
1:55 PM 64.4 °F 51.8 °F 64% 29.93 in 10.0 mi WNW 16.1 mph 23.0 mph N/A   Clear
2:15 PM 64.4 °F 51.8 °F 64% 29.93 in 9.0 mi WNW 17.3 mph 20.7 mph N/A   Clear
2:35 PM 64.4 °F 51.8 °F 64% 29.93 in 10.0 mi WNW 18.4 mph 21.9 mph N/A   Clear
2:55 PM 64.4 °F 51.8 °F 64% 29.93 in 10.0 mi WNW 17.3 mph 23.0 mph N/A   Clear
3:15 PM 62.6 °F 50.0 °F 63% 29.93 in 10.0 mi WNW 18.4 mph 26.5 mph N/A   Clear
3:35 PM 62.6 °F 50.0 °F 63% 29.93 in 10.0 mi WNW 18.4 mph 24.2 mph N/A   Clear
3:55 PM 62.6 °F 50.0 °F 63% 29.93 in 10.0 mi WNW 17.3 mph 25.3 mph N/A   Clear
4:15 PM 62.6 °F 50.0 °F 63% 29.93 in 9.0 mi West 18.4 mph - N/A   Clear
4:35 PM 62.6 °F 48.2 °F 59% 29.93 in 9.0 mi West 19.6 mph 25.3 mph N/A   Clear
4:55 PM 62.6 °F 50.0 °F 63% 29.93 in 10.0 mi WNW 17.3 mph 25.3 mph N/A   Clear
5:15 PM 60.8 °F 48.2 °F 63% 29.93 in 9.0 mi WNW 18.4 mph 24.2 mph N/A   Clear
5:35 PM 60.8 °F 48.2 °F 63% 29.92 in 10.0 mi WNW 16.1 mph 23.0 mph N/A   Clear
5:55 PM 60.8 °F 48.2 °F 63% 29.92 in 9.0 mi WNW 18.4 mph - N/A   Clear
6:15 PM 59.0 °F 48.2 °F 67% 29.92 in 9.0 mi WNW 18.4 mph 23.0 mph N/A   Clear
6:35 PM 59.0 °F 48.2 °F 67% 29.92 in 9.0 mi WNW 15.0 mph 20.7 mph N/A   Clear
6:55 PM 59.0 °F 48.2 °F 67% 29.92 in 8.0 mi WNW 15.0 mph 23.0 mph N/A   Clear
7:15 PM 57.2 °F 48.2 °F 72% 29.91 in 8.0 mi WNW 15.0 mph - N/A   Clear
7:35 PM 55.4 °F 48.2 °F 77% 29.92 in 8.0 mi WNW 13.8 mph - N/A   Clear
8:15 PM 53.6 °F 48.2 °F 82% 29.91 in 7.0 mi West 11.5 mph - N/A   Clear
8:35 PM 53.6 °F 46.4 °F 77% 29.91 in 7.0 mi West 9.2 mph - N/A   Clear
8:55 PM 51.8 °F 46.4 °F 82% 29.91 in 6.0 mi West 10.4 mph - N/A   Clear
9:15 PM 51.8 °F 46.4 °F 82% 29.92 in 7.0 mi West 11.5 mph - N/A   Clear
9:35 PM 51.8 °F 46.4 °F 82% 29.92 in 8.0 mi WNW 8.1 mph - N/A   Clear
9:55 PM 50.0 °F 46.4 °F 87% 29.92 in 7.0 mi WNW 8.1 mph - N/A   Clear
10:15 PM 50.0 °F 46.4 °F 87% 29.93 in 7.0 mi WNW 6.9 mph - N/A   Clear
10:35 PM 50.0 °F 46.4 °F 87% 29.93 in 7.0 mi West 6.9 mph - N/A   Clear
10:55 PM 50.0 °F 46.4 °F 87% 29.93 in 7.0 mi West 6.9 mph - N/A   Clear
11:15 PM 50.0 °F 46.4 °F 87% 29.93 in 7.0 mi WNW 4.6 mph - N/A   Clear
11:35 PM 50.0 °F 46.4 °F 87% 29.93 in 7.0 mi WNW 5.8 mph - N/A   Clear
11:55 PM 50.0 °F 46.4 °F 87% 29.93 in 7.0 mi West 5.8 mph - N/A   Clear